START_TIME,STEP,MOV.,P11,t_acc.,P23,t_acc.,P27,t_acc.,A4,t_acc.
1979-07-23 15:00:22.650 ,1,0,13.,4.8,0.,4.8,0.,4.8,0.,4.8
1979-07-23 15:00:27.450 ,1,0,8.,4.8,0.,4.8,0.,4.8,0.,4.8
1979-07-23 15:00:32.250 ,1,0,10.,4.8,0.,4.8,0.,4.8,0.,4.8
1979-07-23 15:00:37.050 ,1,0,13.,4.8,0.,4.8,0.,4.8,0.,4.8
1979-07-23 15:00:41.850 ,1,0,11.,4.8,0.,4.8,0.,4.8,0.,4.8
1979-07-23 15:00:46.640 ,2,0,8.,4.8,1.,4.8,0.,4.8,0.,4.8
1979-07-23 15:00:51.440 ,2,0,10.,4.8,0.,4.8,0.,4.8,0.,4.8
1979-07-23 15:00:56.250 ,2,0,9.,4.8,0.,4.8,0.,4.8,1.,4.8
1979-07-23 15:01:01.050 ,2,0,12.,4.8,0.,4.8,0.,4.8,0.,4.8
1979-07-23 15:01:05.850 ,2,0,13.,4.8,0.,4.8,0.,4.8,0.,4.8
1979-07-23 15:01:10.640 ,2,0,12.,4.8,0.,4.8,0.,4.8,0.,4.8
1979-07-23 15:01:15.440 ,2,0,7.,4.8,0.,4.8,0.,4.8,1.,4.8
1979-07-23 15:01:20.250 ,2,0,5.,4.8,0.,4.8,0.,4.8,0.,4.8
1979-07-23 15:01:25.050 ,2,0,11.,4.8,0.,4.8,0.,4.8,0.,4.8
1979-07-23 15:01:29.850 ,2,0,18.,4.8,0.,4.8,0.,4.8,0.,4.8
1979-07-23 15:01:34.640 ,3,0,14.,4.8,1.,4.8,0.,4.8,0.,4.8
1979-07-23 15:01:39.440 ,3,0,8.,4.8,0.,4.8,0.,4.8,1.,4.8
1979-07-23 15:01:44.250 ,3,0,8.,4.8,0.,4.8,0.,4.8,0.,4.8
1979-07-23 15:01:49.050 ,3,0,12.,4.8,0.,4.8,0.,4.8,0.,4.8
1979-07-23 15:01:53.850 ,3,0,6.,4.8,0.,4.8,0.,4.8,0.,4.8
1979-07-23 15:01:58.640 ,3,0,9.,4.8,0.,4.8,0.,4.8,0.,4.8
1979-07-23 15:02:03.440 ,3,0,8.,4.8,0.,4.8,0.,4.8,0.,4.8
1979-07-23 15:02:08.250 ,3,0,9.,4.8,0.,4.8,0.,4.8,1.,4.8
1979-07-23 15:02:13.050 ,3,0,6.,4.8,0.,4.8,0.,4.8,0.,4.8
1979-07-23 15:02:17.850 ,3,0,3.,4.8,0.,4.8,1.,4.8,0.,4.8
1979-07-23 15:02:22.650 ,4,0,11.,4.8,0.,4.8,0.,4.8,0.,4.8
1979-07-23 15:02:27.450 ,4,0,9.,4.8,0.,4.8,0.,4.8,0.,4.8
1979-07-23 15:02:32.240 ,4,0,16.,4.8,0.,4.8,0.,4.8,0.,4.8
1979-07-23 15:02:37.040 ,4,0,10.,4.8,0.,4.8,0.,4.8,0.,4.8
1979-07-23 15:02:41.850 ,4,0,14.,4.8,0.,4.8,0.,4.8,0.,4.8
1979-07-23 15:02:46.640 ,4,0,7.,4.8,0.,4.8,0.,4.8,0.,4.8
1979-07-23 15:02:51.440 ,4,0,9.,4.8,1.,4.8,0.,4.8,0.,4.8
1979-07-23 15:02:56.250 ,4,0,10.,4.8,0.,4.8,0.,4.8,0.,4.8
1979-07-23 15:03:01.050 ,4,0,6.,4.8,0.,4.8,0.,4.8,0.,4.8
1979-07-23 15:03:05.850 ,4,0,7.,4.8,0.,4.8,0.,4.8,0.,4.8
1979-07-23 15:03:10.650 ,5,0,5.,4.8,0.,4.8,0.,4.8,0.,4.8
1979-07-23 15:03:15.450 ,5,0,9.,4.8,0.,4.8,0.,4.8,0.,4.8
1979-07-23 15:03:20.250 ,5,0,12.,4.8,0.,4.8,1.,4.8,0.,4.8
1979-07-23 15:03:25.040 ,5,0,10.,4.8,0.,4.8,0.,4.8,0.,4.8
1979-07-23 15:03:29.850 ,5,0,8.,4.8,0.,4.8,1.,4.8,0.,4.8
1979-07-23 15:03:34.640 ,5,0,15.,4.8,0.,4.8,0.,4.8,0.,4.8
1979-07-23 15:03:39.440 ,5,0,12.,4.8,0.,4.8,0.,4.8,1.,4.8
1979-07-23 15:03:44.240 ,5,0,7.,4.8,0.,4.8,0.,4.8,0.,4.8
1979-07-23 15:03:49.040 ,5,0,7.,4.8,0.,4.8,1.,4.8,0.,4.8
1979-07-23 15:03:53.850 ,5,0,8.,4.8,0.,4.8,0.,4.8,0.,4.8
1979-07-23 15:03:58.650 ,6,0,9.,4.8,0.,4.8,0.,4.8,0.,4.8
1979-07-23 15:04:03.450 ,6,0,5.,4.8,0.,4.8,0.,4.8,0.,4.8
1979-07-23 15:04:08.250 ,6,0,10.,4.8,0.,4.8,0.,4.8,0.,4.8
1979-07-23 15:04:13.050 ,6,0,7.,4.8,0.,4.8,0.,4.8,0.,4.8
1979-07-23 15:04:17.850 ,6,0,6.,4.8,0.,4.8,0.,4.8,0.,4.8
1979-07-23 15:04:22.650 ,6,0,8.,4.8,0.,4.8,0.,4.8,0.,4.8
1979-07-23 15:04:27.450 ,6,0,16.,4.8,0.,4.8,0.,4.8,0.,4.8
1979-07-23 15:04:32.250 ,6,0,8.,4.8,0.,4.8,0.,4.8,0.,4.8
1979-07-23 15:04:37.050 ,6,0,1.,4.8,0.,4.8,0.,4.8,0.,4.8
1979-07-23 15:04:41.850 ,6,0,7.,4.8,0.,4.8,0.,4.8,0.,4.8
1979-07-23 15:04:46.650 ,7,0,5.,4.8,0.,4.8,0.,4.8,0.,4.8
1979-07-23 15:04:51.450 ,7,0,12.,4.8,0.,4.8,0.,4.8,0.,4.8
1979-07-23 15:04:56.250 ,7,0,10.,4.8,1.,4.8,0.,4.8,0.,4.8
1979-07-23 15:05:01.050 ,7,0,2.,4.8,0.,4.8,0.,4.8,0.,4.8
1979-07-23 15:05:05.850 ,7,0,3.,4.8,0.,4.8,0.,4.8,0.,4.8
1979-07-23 15:05:10.650 ,7,0,1.,4.8,0.,4.8,0.,4.8,0.,4.8
1979-07-23 15:05:15.450 ,7,0,6.,4.8,0.,4.8,0.,4.8,0.,4.8
1979-07-23 15:05:20.250 ,7,0,3.,4.8,0.,4.8,0.,4.8,0.,4.8
1979-07-23 15:05:25.050 ,7,0,2.,4.8,0.,4.8,1.,4.8,0.,4.8
1979-07-23 15:05:29.850 ,7,0,1.,4.8,0.,4.8,1.,4.8,0.,4.8
1979-07-23 15:05:34.650 ,7,0,8.,4.8,0.,4.8,1.,4.8,0.,4.8
1979-07-23 15:05:39.450 ,7,0,5.,4.8,0.,4.8,0.,4.8,0.,4.8
1979-07-23 15:05:44.250 ,7,0,3.,4.8,0.,4.8,0.,4.8,0.,4.8
1979-07-23 15:05:49.050 ,7,0,4.,4.8,0.,4.8,0.,4.8,0.,4.8
1979-07-23 15:05:53.850 ,7,0,2.,4.8,1.,4.8,0.,4.8,0.,4.8
1979-07-23 15:05:58.650 ,7,0,1.,4.8,0.,4.8,0.,4.8,0.,4.8
1979-07-23 15:06:03.450 ,7,0,4.,4.8,0.,4.8,0.,4.8,0.,4.8
1979-07-23 15:06:08.250 ,7,0,5.,4.8,1.,4.8,0.,4.8,0.,4.8
1979-07-23 15:06:13.050 ,7,0,4.,4.8,0.,4.8,0.,4.8,0.,4.8
1979-07-23 15:06:17.850 ,7,0,3.,4.8,0.,4.8,0.,4.8,0.,4.8
1979-07-23 15:06:22.650 ,6,0,4.,4.8,0.,4.8,0.,4.8,0.,4.8
1979-07-23 15:06:27.450 ,6,0,6.,4.8,0.,4.8,0.,4.8,0.,4.8
1979-07-23 15:06:32.250 ,6,0,19.,4.8,0.,4.8,0.,4.8,0.,4.8
1979-07-23 15:06:37.050 ,6,0,12.,4.8,0.,4.8,0.,4.8,0.,4.8
1979-07-23 15:06:41.850 ,6,0,12.,4.8,0.,4.8,0.,4.8,0.,4.8
1979-07-23 15:06:46.650 ,6,0,13.,4.8,0.,4.8,1.,4.8,0.,4.8
1979-07-23 15:06:51.450 ,6,0,8.,4.8,0.,4.8,0.,4.8,0.,4.8
1979-07-23 15:06:56.250 ,6,0,10.,4.8,0.,4.8,1.,4.8,0.,4.8
1979-07-23 15:07:01.050 ,6,0,4.,4.8,0.,4.8,0.,4.8,0.,4.8
1979-07-23 15:07:05.850 ,6,0,13.,4.8,0.,4.8,0.,4.8,0.,4.8
1979-07-23 15:07:10.650 ,5,0,11.,4.8,0.,4.8,0.,4.8,0.,4.8
1979-07-23 15:07:15.450 ,5,0,9.,4.8,0.,4.8,0.,4.8,0.,4.8
1979-07-23 15:07:20.250 ,5,0,7.,4.8,0.,4.8,0.,4.8,0.,4.8
1979-07-23 15:07:25.050 ,5,0,7.,4.8,0.,4.8,0.,4.8,0.,4.8
1979-07-23 15:07:29.850 ,5,0,8.,4.8,0.,4.8,0.,4.8,0.,4.8
1979-07-23 15:07:34.650 ,5,0,10.,4.8,0.,4.8,1.,4.8,0.,4.8
1979-07-23 15:07:39.450 ,5,0,11.,4.8,0.,4.8,1.,4.8,0.,4.8
1979-07-23 15:07:44.250 ,5,0,9.,4.8,0.,4.8,0.,4.8,0.,4.8
1979-07-23 15:07:49.050 ,5,0,7.,4.8,0.,4.8,0.,4.8,0.,4.8
1979-07-23 15:07:53.850 ,5,0,5.,4.8,0.,4.8,0.,4.8,0.,4.8
1979-07-23 15:07:58.650 ,4,0,7.,4.8,0.,4.8,0.,4.8,0.,4.8
1979-07-23 15:08:03.450 ,4,0,10.,4.8,0.,4.8,1.,4.8,0.,4.8
1979-07-23 15:08:08.250 ,4,0,6.,4.8,0.,4.8,0.,4.8,0.,4.8
1979-07-23 15:08:13.050 ,4,0,14.,4.8,0.,4.8,0.,4.8,0.,4.8
1979-07-23 15:08:17.850 ,4,0,9.,4.8,0.,4.8,1.,4.8,0.,4.8
1979-07-23 15:08:22.650 ,4,0,9.,4.8,0.,4.8,0.,4.8,0.,4.8
1979-07-23 15:08:27.450 ,4,0,9.,4.8,0.,4.8,0.,4.8,0.,4.8
1979-07-23 15:08:32.240 ,4,0,5.,4.8,1.,4.8,1.,4.8,0.,4.8
1979-07-23 15:08:37.050 ,4,0,10.,4.8,0.,4.8,0.,4.8,0.,4.8
1979-07-23 15:08:41.850 ,4,0,7.,4.8,0.,4.8,0.,4.8,0.,4.8
1979-07-23 15:08:46.640 ,3,0,9.,4.8,0.,4.8,0.,4.8,0.,4.8
1979-07-23 15:08:51.440 ,3,0,3.,4.8,0.,4.8,0.,4.8,0.,4.8
1979-07-23 15:08:56.240 ,3,0,3.,4.8,0.,4.8,0.,4.8,0.,4.8
1979-07-23 15:09:01.040 ,3,0,7.,4.8,0.,4.8,0.,4.8,0.,4.8
1979-07-23 15:09:05.840 ,3,0,3.,4.8,0.,4.8,1.,4.8,0.,4.8
1979-07-23 15:09:10.640 ,3,0,14.,4.8,0.,4.8,1.,4.8,0.,4.8
1979-07-23 15:09:15.440 ,3,0,10.,4.8,0.,4.8,0.,4.8,0.,4.8
1979-07-23 15:09:20.240 ,3,0,11.,4.8,0.,4.8,0.,4.8,0.,4.8
1979-07-23 15:09:25.040 ,3,0,13.,4.8,0.,4.8,1.,4.8,0.,4.8
1979-07-23 15:09:29.840 ,3,0,15.,4.8,0.,4.8,0.,4.8,0.,4.8
1979-07-23 15:09:34.640 ,2,0,6.,4.8,0.,4.8,0.,4.8,0.,4.8
1979-07-23 15:09:39.440 ,2,0,10.,4.8,0.,4.8,0.,4.8,0.,4.8
1979-07-23 15:09:44.240 ,2,0,5.,4.8,0.,4.8,0.,4.8,0.,4.8
1979-07-23 15:09:49.040 ,2,0,7.,4.8,0.,4.8,0.,4.8,0.,4.8
1979-07-23 15:09:53.840 ,2,0,8.,4.8,0.,4.8,0.,4.8,0.,4.8
1979-07-23 15:09:58.640 ,2,0,8.,4.8,0.,4.8,0.,4.8,0.,4.8
1979-07-23 15:10:03.440 ,2,0,10.,4.8,0.,4.8,0.,4.8,0.,4.8
1979-07-23 15:10:08.240 ,2,0,7.,4.8,0.,4.8,0.,4.8,0.,4.8
1979-07-23 15:10:13.040 ,2,0,10.,4.8,0.,4.8,0.,4.8,0.,4.8
1979-07-23 15:10:17.840 ,2,0,11.,4.8,0.,4.8,0.,4.8,0.,4.8
1979-07-23 15:10:22.640 ,1,0,14.,4.8,0.,4.8,0.,4.8,0.,4.8
1979-07-23 15:10:27.440 ,1,0,5.,4.8,0.,4.8,0.,4.8,0.,4.8
1979-07-23 15:10:32.240 ,1,0,9.,4.8,0.,4.8,0.,4.8,0.,4.8
1979-07-23 15:10:37.040 ,1,0,7.,4.8,1.,4.8,0.,4.8,0.,4.8
1979-07-23 15:10:41.840 ,1,0,10.,4.8,0.,4.8,0.,4.8,0.,4.8
1979-07-23 15:10:46.640 ,1,0,13.,4.8,0.,4.8,0.,4.8,0.,4.8
1979-07-23 15:10:51.440 ,1,0,11.,4.8,0.,4.8,0.,4.8,0.,4.8
1979-07-23 15:10:56.240 ,1,0,13.,4.8,0.,4.8,0.,4.8,0.,4.8
1979-07-23 15:11:01.040 ,1,0,9.,4.8,0.,4.8,0.,4.8,0.,4.8
1979-07-23 15:11:05.840 ,1,0,7.,4.8,0.,4.8,0.,4.8,0.,4.8
1979-07-23 15:11:10.640 ,0,0,8.,4.8,0.,4.8,0.,4.8,0.,4.8
1979-07-23 15:11:15.440 ,0,0,10.,4.8,0.,4.8,1.,4.8,0.,4.8
1979-07-23 15:11:20.240 ,0,0,9.,4.8,0.,4.8,0.,4.8,0.,4.8
1979-07-23 15:11:25.040 ,0,0,9.,4.8,0.,4.8,0.,4.8,0.,4.8
1979-07-23 15:11:29.840 ,0,0,10.,4.8,0.,4.8,0.,4.8,0.,4.8
1979-07-23 15:11:34.640 ,0,0,8.,4.8,1.,4.8,0.,4.8,0.,4.8
1979-07-23 15:11:39.440 ,0,0,8.,4.8,0.,4.8,0.,4.8,0.,4.8
1979-07-23 15:11:44.240 ,0,0,8.,4.8,1.,4.8,1.,4.8,0.,4.8
1979-07-23 15:11:49.040 ,0,0,9.,4.8,0.,4.8,1.,4.8,0.,4.8
1979-07-23 15:11:53.840 ,0,0,8.,4.8,0.,4.8,0.,4.8,0.,4.8
1979-07-23 15:11:58.640 ,0,0,6.,4.8,0.,4.8,0.,4.8,1.,4.8
1979-07-23 15:12:03.440 ,0,0,12.,4.8,0.,4.8,0.,4.8,0.,4.8
1979-07-23 15:12:08.240 ,0,0,10.,4.8,0.,4.8,0.,4.8,0.,4.8
1979-07-23 15:12:13.040 ,0,0,9.,4.8,0.,4.8,0.,4.8,0.,4.8
1979-07-23 15:12:17.840 ,0,0,9.,4.8,0.,4.8,0.,4.8,0.,4.8
1979-07-23 15:12:22.640 ,0,0,6.,4.8,0.,4.8,0.,4.8,0.,4.8
1979-07-23 15:12:27.440 ,0,0,8.,4.8,0.,4.8,0.,4.8,0.,4.8
1979-07-23 15:12:32.240 ,0,0,9.,4.8,0.,4.8,0.,4.8,0.,4.8
1979-07-23 15:12:37.040 ,0,0,10.,4.8,0.,4.8,0.,4.8,0.,4.8
1979-07-23 15:12:41.840 ,0,0,10.,4.8,0.,4.8,1.,4.8,0.,4.8
1979-07-23 15:12:46.640 ,1,0,12.,4.8,0.,4.8,1.,4.8,0.,4.8
1979-07-23 15:12:51.440 ,1,0,9.,4.8,0.,4.8,1.,4.8,0.,4.8
1979-07-23 15:12:56.240 ,1,0,10.,4.8,0.,4.8,0.,4.8,0.,4.8
1979-07-23 15:13:01.040 ,1,0,8.,4.8,0.,4.8,0.,4.8,0.,4.8
1979-07-23 15:13:05.840 ,1,0,8.,4.8,0.,4.8,0.,4.8,0.,4.8
1979-07-23 15:13:10.640 ,1,0,10.,4.8,0.,4.8,0.,4.8,0.,4.8
1979-07-23 15:13:15.440 ,1,0,8.,4.8,0.,4.8,0.,4.8,0.,4.8
1979-07-23 15:13:20.240 ,1,0,13.,4.8,0.,4.8,0.,4.8,0.,4.8
1979-07-23 15:13:25.040 ,1,0,13.,4.8,0.,4.8,0.,4.8,0.,4.8
1979-07-23 15:13:29.840 ,1,0,8.,4.8,0.,4.8,0.,4.8,0.,4.8
1979-07-23 15:13:34.640 ,0,0,11.,4.8,0.,4.8,0.,4.8,0.,4.8
1979-07-23 15:13:39.440 ,0,0,8.,4.8,1.,4.8,0.,4.8,1.,4.8
1979-07-23 15:13:44.240 ,0,0,13.,4.8,0.,4.8,0.,4.8,0.,4.8
1979-07-23 15:13:49.040 ,0,0,9.,4.8,0.,4.8,0.,4.8,0.,4.8
1979-07-23 15:13:53.840 ,0,0,9.,4.8,0.,4.8,0.,4.8,0.,4.8
1979-07-23 15:13:58.640 ,0,0,10.,4.8,2.,4.8,1.,4.8,0.,4.8
1979-07-23 15:14:03.440 ,0,0,6.,4.8,0.,4.8,0.,4.8,0.,4.8
1979-07-23 15:14:08.240 ,0,0,8.,4.8,0.,4.8,0.,4.8,0.,4.8
1979-07-23 15:14:13.040 ,0,0,9.,4.8,0.,4.8,0.,4.8,0.,4.8
1979-07-23 15:14:17.840 ,0,0,4.,4.8,0.,4.8,0.,4.8,0.,4.8
1979-07-23 15:14:22.640 ,7,0,7.,4.8,0.,4.8,0.,4.8,0.,4.8
1979-07-23 15:14:27.440 ,7,0,3.,4.8,0.,4.8,0.,4.8,0.,4.8
1979-07-23 15:14:32.240 ,7,0,0.,4.8,0.,4.8,1.,4.8,0.,4.8
1979-07-23 15:14:37.040 ,7,0,7.,4.8,0.,4.8,0.,4.8,0.,4.8
1979-07-23 15:14:41.840 ,7,0,5.,4.8,0.,4.8,0.,4.8,0.,4.8
1979-07-23 15:14:46.640 ,7,0,3.,4.8,1.,4.8,1.,4.8,0.,4.8
1979-07-23 15:14:51.440 ,7,0,5.,4.8,0.,4.8,1.,4.8,0.,4.8
1979-07-23 15:14:56.240 ,7,0,6.,4.8,0.,4.8,0.,4.8,0.,4.8
1979-07-23 15:15:01.040 ,7,0,2.,4.8,0.,4.8,1.,4.8,0.,4.8
1979-07-23 15:15:05.840 ,7,0,7.,4.8,0.,4.8,0.,4.8,0.,4.8
1979-07-23 15:15:10.640 ,7,0,7.,4.8,0.,4.8,0.,4.8,0.,4.8
1979-07-23 15:15:15.440 ,7,0,10.,4.8,0.,4.8,0.,4.8,0.,4.8
1979-07-23 15:15:20.240 ,7,0,2.,4.8,0.,4.8,0.,4.8,0.,4.8
1979-07-23 15:15:25.040 ,7,0,5.,4.8,0.,4.8,0.,4.8,0.,4.8
1979-07-23 15:15:29.840 ,7,0,2.,4.8,0.,4.8,0.,4.8,0.,4.8
1979-07-23 15:15:34.640 ,7,0,2.,4.8,1.,4.8,0.,4.8,0.,4.8
1979-07-23 15:15:39.440 ,7,0,1.,4.8,0.,4.8,0.,4.8,0.,4.8
1979-07-23 15:15:44.240 ,7,0,2.,4.8,0.,4.8,0.,4.8,0.,4.8
1979-07-23 15:15:49.040 ,7,0,6.,4.8,0.,4.8,0.,4.8,0.,4.8
1979-07-23 15:15:53.840 ,7,0,2.,4.8,0.,4.8,0.,4.8,0.,4.8
1979-07-23 15:15:58.640 ,7,0,3.,4.8,1.,4.8,0.,4.8,0.,4.8
1979-07-23 15:16:03.440 ,7,0,2.,4.8,0.,4.8,0.,4.8,0.,4.8
1979-07-23 15:16:08.240 ,7,0,7.,4.8,0.,4.8,0.,4.8,0.,4.8
1979-07-23 15:16:13.040 ,7,0,6.,4.8,0.,4.8,1.,4.8,0.,4.8
1979-07-23 15:16:17.840 ,7,0,2.,4.8,0.,4.8,0.,4.8,0.,4.8
1979-07-23 15:16:22.640 ,7,0,3.,4.8,0.,4.8,0.,4.8,0.,4.8
1979-07-23 15:16:27.440 ,7,0,3.,4.8,0.,4.8,0.,4.8,0.,4.8
1979-07-23 15:16:32.240 ,7,0,4.,4.8,1.,4.8,0.,4.8,0.,4.8
1979-07-23 15:16:37.040 ,7,0,4.,4.8,0.,4.8,0.,4.8,0.,4.8
1979-07-23 15:16:41.840 ,7,0,2.,4.8,0.,4.8,0.,4.8,0.,4.8
1979-07-23 15:16:46.640 ,7,0,7.,4.8,0.,4.8,1.,4.8,0.,4.8
1979-07-23 15:16:51.440 ,7,0,4.,4.8,0.,4.8,0.,4.8,0.,4.8
1979-07-23 15:16:56.240 ,7,0,2.,4.8,0.,4.8,1.,4.8,0.,4.8
1979-07-23 15:17:01.040 ,7,0,5.,4.8,1.,4.8,0.,4.8,0.,4.8
1979-07-23 15:17:05.840 ,7,0,6.,4.8,0.,4.8,0.,4.8,0.,4.8
1979-07-23 15:17:10.640 ,7,0,3.,4.8,0.,4.8,0.,4.8,0.,4.8
1979-07-23 15:17:15.440 ,7,0,2.,4.8,0.,4.8,1.,4.8,0.,4.8
1979-07-23 15:17:20.240 ,7,0,3.,4.8,0.,4.8,0.,4.8,0.,4.8
1979-07-23 15:17:25.040 ,7,0,3.,4.8,0.,4.8,1.,4.8,0.,4.8
1979-07-23 15:17:29.840 ,7,0,4.,4.8,1.,4.8,0.,4.8,0.,4.8
1979-07-23 15:17:34.640 ,7,0,4.,4.8,0.,4.8,1.,4.8,0.,4.8
1979-07-23 15:17:39.440 ,7,0,4.,4.8,0.,4.8,0.,4.8,0.,4.8
1979-07-23 15:17:44.240 ,7,0,10.,4.8,0.,4.8,0.,4.8,0.,4.8
1979-07-23 15:17:49.040 ,7,0,6.,4.8,0.,4.8,2.,4.8,0.,4.8
1979-07-23 15:17:53.840 ,7,0,4.,4.8,1.,4.8,1.,4.8,0.,4.8
1979-07-23 15:17:58.640 ,7,0,2.,4.8,0.,4.8,0.,4.8,0.,4.8
1979-07-23 15:18:03.440 ,7,0,5.,4.8,0.,4.8,0.,4.8,0.,4.8
1979-07-23 15:18:08.240 ,7,0,5.,4.8,0.,4.8,1.,4.8,0.,4.8
1979-07-23 15:18:13.040 ,7,0,3.,4.8,0.,4.8,0.,4.8,0.,4.8
1979-07-23 15:18:17.840 ,7,0,3.,4.8,0.,4.8,0.,4.8,0.,4.8
1979-07-23 15:18:22.640 ,7,0,6.,4.8,1.,4.8,0.,4.8,0.,4.8
1979-07-23 15:18:27.440 ,7,0,2.,4.8,0.,4.8,0.,4.8,0.,4.8
1979-07-23 15:18:32.240 ,7,0,8.,4.8,0.,4.8,1.,4.8,0.,4.8
1979-07-23 15:18:37.040 ,7,0,2.,4.8,0.,4.8,0.,4.8,0.,4.8
1979-07-23 15:18:41.840 ,7,0,8.,4.8,0.,4.8,1.,4.8,0.,4.8
1979-07-23 15:18:46.640 ,7,0,5.,4.8,0.,4.8,0.,4.8,0.,4.8
1979-07-23 15:18:51.440 ,7,0,4.,4.8,0.,4.8,0.,4.8,0.,4.8
1979-07-23 15:18:56.240 ,7,0,7.,4.8,0.,4.8,0.,4.8,0.,4.8
1979-07-23 15:19:01.040 ,7,0,5.,4.8,0.,4.8,0.,4.8,0.,4.8
1979-07-23 15:19:05.840 ,7,0,5.,4.8,1.,4.8,0.,4.8,0.,4.8
1979-07-23 15:19:10.640 ,7,0,7.,4.8,0.,4.8,0.,4.8,0.,4.8
1979-07-23 15:19:15.440 ,7,0,7.,4.8,0.,4.8,1.,4.8,0.,4.8
1979-07-23 15:19:20.240 ,7,0,4.,4.8,0.,4.8,0.,4.8,0.,4.8
1979-07-23 15:19:25.040 ,7,0,4.,4.8,1.,4.8,1.,4.8,0.,4.8
1979-07-23 15:19:29.840 ,7,0,5.,4.8,0.,4.8,1.,4.8,0.,4.8
1979-07-23 15:19:34.640 ,7,0,7.,4.8,0.,4.8,0.,4.8,0.,4.8
1979-07-23 15:19:39.440 ,7,0,6.,4.8,0.,4.8,0.,4.8,0.,4.8
1979-07-23 15:19:44.240 ,7,0,4.,4.8,1.,4.8,0.,4.8,0.,4.8
1979-07-23 15:19:49.040 ,7,0,4.,4.8,0.,4.8,1.,4.8,0.,4.8
1979-07-23 15:19:53.840 ,7,0,6.,4.8,0.,4.8,0.,4.8,0.,4.8
1979-07-23 15:19:58.640 ,7,0,3.,4.8,0.,4.8,0.,4.8,0.,4.8
1979-07-23 15:20:03.440 ,7,0,4.,4.8,0.,4.8,0.,4.8,0.,4.8
1979-07-23 15:20:08.240 ,7,0,3.,4.8,0.,4.8,0.,4.8,0.,4.8
1979-07-23 15:20:13.040 ,7,0,3.,4.8,0.,4.8,1.,4.8,0.,4.8
1979-07-23 15:20:17.840 ,7,0,8.,4.8,0.,4.8,0.,4.8,0.,4.8
1979-07-23 15:20:22.640 ,7,0,5.,4.8,0.,4.8,0.,4.8,0.,4.8
1979-07-23 15:20:27.440 ,7,0,5.,4.8,0.,4.8,0.,4.8,0.,4.8
1979-07-23 15:20:32.240 ,7,0,8.,4.8,0.,4.8,0.,4.8,0.,4.8
1979-07-23 15:20:37.040 ,7,0,3.,4.8,0.,4.8,0.,4.8,0.,4.8
1979-07-23 15:20:41.840 ,7,0,5.,4.8,0.,4.8,0.,4.8,0.,4.8
1979-07-23 15:20:46.640 ,7,0,6.,4.8,0.,4.8,1.,4.8,0.,4.8
1979-07-23 15:20:51.440 ,7,0,4.,4.8,1.,4.8,0.,4.8,0.,4.8
1979-07-23 15:20:56.240 ,7,0,3.,4.8,0.,4.8,0.,4.8,0.,4.8
1979-07-23 15:21:01.040 ,7,0,4.,4.8,0.,4.8,1.,4.8,0.,4.8
1979-07-23 15:21:05.840 ,7,0,1.,4.8,0.,4.8,0.,4.8,0.,4.8
1979-07-23 15:21:10.640 ,7,0,5.,4.8,0.,4.8,0.,4.8,0.,4.8
1979-07-23 15:21:15.440 ,7,0,7.,4.8,0.,4.8,0.,4.8,0.,4.8
1979-07-23 15:21:20.240 ,7,0,2.,4.8,0.,4.8,0.,4.8,0.,4.8
1979-07-23 15:21:25.040 ,7,0,0.,4.8,0.,4.8,0.,4.8,0.,4.8
1979-07-23 15:21:29.840 ,7,0,1.,4.8,0.,4.8,0.,4.8,0.,4.8
1979-07-23 15:21:34.640 ,7,0,4.,4.8,0.,4.8,0.,4.8,0.,4.8
1979-07-23 15:21:39.440 ,7,0,4.,4.8,0.,4.8,1.,4.8,0.,4.8
1979-07-23 15:21:44.240 ,7,0,5.,4.8,0.,4.8,0.,4.8,0.,4.8
1979-07-23 15:21:49.040 ,7,0,2.,4.8,1.,4.8,0.,4.8,0.,4.8
1979-07-23 15:21:53.840 ,7,0,4.,4.8,0.,4.8,0.,4.8,0.,4.8
1979-07-23 15:21:58.640 ,7,0,5.,4.8,0.,4.8,0.,4.8,0.,4.8
1979-07-23 15:22:03.440 ,7,0,2.,4.8,0.,4.8,0.,4.8,0.,4.8
1979-07-23 15:22:08.240 ,7,0,3.,4.8,0.,4.8,0.,4.8,0.,4.8
1979-07-23 15:22:13.040 ,7,0,3.,4.8,0.,4.8,0.,4.8,0.,4.8
1979-07-23 15:22:17.840 ,7,0,9.,4.8,1.,4.8,0.,4.8,0.,4.8
1979-07-23 15:22:22.640 ,7,0,4.,4.8,0.,4.8,0.,4.8,0.,4.8
1979-07-23 15:22:27.440 ,7,0,4.,4.8,0.,4.8,0.,4.8,0.,4.8
1979-07-23 15:22:32.240 ,7,0,4.,4.8,0.,4.8,0.,4.8,0.,4.8
1979-07-23 15:22:37.040 ,7,0,3.,4.8,0.,4.8,1.,4.8,0.,4.8
1979-07-23 15:22:41.840 ,7,0,3.,4.8,0.,4.8,0.,4.8,0.,4.8
1979-07-23 15:22:46.640 ,7,0,3.,4.8,0.,4.8,0.,4.8,0.,4.8
1979-07-23 15:22:51.440 ,7,0,,0,,0,,0,,0
1979-07-23 15:22:56.240 ,7,0,2.,4.8,0.,4.8,0.,4.8,0.,4.8
1979-07-23 15:23:01.040 ,7,0,5.,4.8,0.,4.8,0.,4.8,0.,4.8
1979-07-23 15:23:05.840 ,7,0,10.,4.8,0.,4.8,0.,4.8,0.,4.8
1979-07-23 15:23:10.640 ,7,0,1.,4.8,0.,4.8,0.,4.8,0.,4.8
1979-07-23 15:23:15.440 ,7,0,6.,4.8,0.,4.8,0.,4.8,0.,4.8
1979-07-23 15:23:20.240 ,7,0,5.,4.8,1.,4.8,0.,4.8,0.,4.8
1979-07-23 15:23:25.040 ,7,0,5.,4.8,0.,4.8,0.,4.8,0.,4.8
1979-07-23 15:23:29.840 ,7,0,4.,4.8,1.,4.8,0.,4.8,0.,4.8
